Location: Newark
(49.8969°N, 3.3422°E)
Time: 19:08:51
(UTC+00:00)

Envisat - Pass Details

Date: 12 December 2019
Orbit: 764 x 766 km, 98.1° (Epoch: 28 January)

Event Time Altitude Azimuth Distance (km) Brightness Sun altitude
Rises 18:02:23 0° 180° (S) 3,221 6.4 -20.9°
Reaches altitude 10° 18:04:45 10° 185° (S) 2,299 5.7 -21.3°
Maximum altitude 18:09:40 50° 261° (W) 979 3.9 -22.1°
Drops below altitude 10° 18:14:38 10° 337° (NNW) 2,317 5.6 -22.9°
Sets 18:17:01 0° 342° (NNW) 3,248 6.4 -23.2°
